Regional Weather Roundup
Issued by NWS Little Rock, AR

Home | Current Version | Previous Version | Graphics & Text | Print | Product List | Glossary On
Versions: 1 2 3 4 5 6 7 8 9 10 11 12 13 14 15 16 17 18 19 20 21 22 23 24 25 26 27
000
ASUS44 KLZK 240405
RWRLZK

WEATHER ROUNDUP FOR ARKANSAS
NATIONAL WEATHER SERVICE LITTLE ROCK AR
1100 PM CDT SAT JUL 23 2016

NOTE: "FAIR" INDICATES FEW OR NO CLOUDS BELOW 12,000 FEET WITH NO
SIGNIFICANT WEATHER AND/OR OBSTRUCTIONS TO VISIBILITY.

ARZ001-003-010-029-240500-
NORTHWEST ARKANSAS

CITY           SKY/WX    TMP DP  RH WIND       PRES   REMARKS
FAYETTEVILLE   CLEAR     79  75  87 S3        29.96R
FORT SMITH     CLEAR     84  71  65 S3        29.91R HX  89
HARRISON       MOCLDY    81  73  76 S7        29.98S HX  86
BENTONVILLE    CLEAR     82  72  69 S6        29.96S HX  87
ROGERS         CLEAR     83  75  77 SE5       29.97R HX  90
SILOAM SPGS    CLEAR     82  66  57 S7        29.96S HX  85
HIGHFILL       CLEAR     82  76  81 S3        29.95F HX  89
$$

ARZ004-005-016-240500-
NORTH CENTRAL ARKANSAS

CITY           SKY/WX    TMP DP  RH WIND       PRES   REMARKS
BATESVILLE     MOCLDY    79  70  73 CALM      29.96S
FLIPPIN        CLOUDY    81  70  69 SE3       29.93S
MTN HOME       CLOUDY    80  71  74 S5        29.96R
$$

ARZ040-041-240500-
WEST CENTRAL ARKANSAS

CITY           SKY/WX    TMP DP  RH WIND       PRES   REMARKS
MENA           CLOUDY    77  77 100 CALM      29.98S
MOUNT IDA      MOCLDY    77  75  93 CALM      29.94F
$$

ARZ009-017-025-026-028-240500-
NORTHEAST ARKANSAS

CITY           SKY/WX    TMP DP  RH WIND       PRES   REMARKS
CORNING          N/A     81  75  83 SE6       29.95F HX  86
JONESBORO      CLOUDY    79  73  82 S6        29.96S
NEWPORT        MOCLDY    79  75  87 CALM      29.96S
WALNUT RIDGE   PTCLDY    79  73  83 S5        29.95S
BLYTHEVILLE    CLOUDY    82  76  81 S3        29.96F HX  89
$$

ARZ022-023-033-042-044-240500-
CENTRAL ARKANSAS

CITY           SKY/WX    TMP DP  RH WIND       PRES   REMARKS
LITTLE ROCK    CLOUDY    79  71  76 E5        29.95S
N LITTLE ROCK    N/A     76  71  82 CALM      29.92F
JACKSONVILLE   CLOUDY    76  76  99 CALM      29.94S
SEARCY         CLOUDY    76  72  87 CALM      29.96F
HOT SPRINGS    MOCLDY    78  73  84 W5        29.96R
RUSSELLVILLE   CLOUDY    80  73  79 CALM      29.95R
$$

ARZ036-240500-
EAST ARKANSAS

CITY           SKY/WX    TMP DP  RH WIND       PRES   REMARKS
WEST MEMPHIS   CLOUDY    80  74  81 S9        29.96S THUNDER HX  85
$$

ARZ050-053-066-070-073-240500-
SOUTHWEST ARKANSAS

CITY           SKY/WX    TMP DP  RH WIND       PRES   REMARKS
CAMDEN         CLOUDY    75  70  83 CALM      29.95S
TEXARKANA      CLOUDY    75  73  93 CALM      29.94F
EL DORADO      CLOUDY    75  72  90 NE3       29.95S
DE QUEEN       PTCLDY    76  75  97 CALM      29.93S FOG
$$

ARZ056-057-069-240500-
SOUTHEAST ARKANSAS

CITY           SKY/WX    TMP DP  RH WIND       PRES   REMARKS
PINE BLUFF     MOCLDY    74  71  91 NE6       29.95R
STUTTGART      CLOUDY    75  70  83 SE5       29.95F
MONTICELLO     CLOUDY    77  73  87 SE6       29.94F

$$






USA.gov is the U.S. government's official web portal to all federal, state and local government web resources and services.